Rockwall, TX

4:54 PM CST on November 24, 2017 (GMT -0600)
Rockwall

Weather History for KF46 - July, 2013

Change the Weather History Date:

Friday, July 5, 2013

  Actual Average (KDFW) Record (KDFW)
Temperature  
Mean Temperature 80 °F -  
Max Temperature 94 °F 92 °F 103 °F (1996)
Min Temperature 68 °F 73 °F 56 °F (1924)
Cooling Degree Days 16    
Growing Degree Days 30 (Base 50)    
Moisture  
Dew Point 63 °F    
Average Humidity 58    
Maximum Humidity 85    
Minimum Humidity 34    
Precipitation  
Precipitation 0.00 in - - ()
Sea Level Pressure  
Sea Level Pressure 29.94 in    
Wind  
Wind Speed 5 mph (ESE)    
Max Wind Speed 12 mph    
Max Gust Speed 17 mph    
Visibility 10 miles    
Events      
Averages and records for this station are not official NWS values.
T = Trace of Precipitation, MM = Missing Value Source: NWS Daily Summary

Daily Weather History Graph

Daily Weather History Graph

Search for Another Location

Airport or City:

Trip Planner

Search our weather history database for the weather conditions in past years. The results will help you decide how hot, cold, wet, or windy it might be!

Date:

Astronomy

Jul. 05, 2013 Rise Set
Actual Time 6:22 AM CDT 8:37 PM CDT
Civil Twilight 5:54 AM CDT 9:06 PM CDT
Nautical Twilight 5:19 AM CDT 9:40 PM CDT
Astronomical Twilight 4:41 AM CDT 10:18 PM CDT
Moon 4:20 AM CDT (7/5) 6:36 PM CDT (7/5)
Length of Visible Light 15h 11m
Length of Day
14h 14m
Waning Crescent, 6% of the Moon is Illuminated
Jul 5
Waning Crescent
Jul 8
New
Jul 15
First Quarter
Jul 22
Full
Jul 29
Last Quarter

Hourly Weather History & Observations

Time (CDT) Temp. Heat Index Dew Point Humidity Pressure Visibility Wind Dir Wind Speed Gust Speed Precip Events Conditions
12:15 AM 73.4 °F - 63.5 °F 71% 29.97 in 10.0 mi ESE 4.6 mph - N/A   Clear
12:35 AM 72.9 °F - 63.5 °F 72% 29.97 in 10.0 mi SE 4.6 mph - N/A   Clear
12:55 AM 72.9 °F - 63.3 °F 72% 29.97 in 10.0 mi SE 4.6 mph - N/A   Clear
1:15 AM 72.7 °F - 62.8 °F 71% 29.96 in 10.0 mi ESE 4.6 mph - N/A   Clear
1:35 AM 72.5 °F - 63.0 °F 72% 29.96 in 10.0 mi ESE 4.6 mph - N/A   Clear
1:55 AM 71.8 °F - 62.6 °F 73% 29.96 in 10.0 mi ESE 5.8 mph - N/A   Clear
2:15 AM 71.2 °F - 62.8 °F 75% 29.96 in 10.0 mi ESE 5.8 mph - N/A   Clear
2:35 AM 71.6 °F - 62.6 °F 73% 29.96 in 10.0 mi ESE 5.8 mph - N/A   Clear
2:55 AM 71.1 °F - 62.6 °F 75% 29.96 in 10.0 mi ESE 5.8 mph - N/A   Clear
3:15 AM 70.2 °F - 62.8 °F 77% 29.96 in 10.0 mi ESE 5.8 mph - N/A   Clear
3:35 AM 69.8 °F - 62.8 °F 78% 29.96 in 10.0 mi ESE 3.5 mph - N/A   Clear
3:55 AM 69.8 °F - 62.8 °F 78% 29.96 in 10.0 mi Calm Calm - N/A   Clear
4:15 AM 70.7 °F - 62.6 °F 75% 29.96 in 10.0 mi South 3.5 mph - N/A   Clear
4:35 AM 69.6 °F - 62.6 °F 78% 29.96 in 10.0 mi SE 3.5 mph - N/A   Clear
4:55 AM 69.3 °F - 62.6 °F 79% 29.96 in 10.0 mi SSE 3.5 mph - N/A   Clear
5:15 AM 68.9 °F - 62.6 °F 80% 29.96 in 10.0 mi SSW 5.8 mph - N/A   Clear
5:35 AM 68.9 °F - 62.6 °F 80% 29.96 in 10.0 mi SE 4.6 mph - N/A   Clear
5:55 AM 68.4 °F - 62.8 °F 82% 29.96 in 10.0 mi ESE 3.5 mph - N/A   Clear
6:15 AM 68.9 °F - 63.0 °F 81% 29.97 in 10.0 mi Calm Calm - N/A   Clear
6:35 AM 68.4 °F - 63.9 °F 85% 29.97 in 10.0 mi Calm Calm - N/A   Clear
6:55 AM 68.2 °F - 63.1 °F 84% 29.98 in 10.0 mi East 3.5 mph - N/A   Clear
7:15 AM 68.7 °F - 63.5 °F 83% 29.98 in 10.0 mi East 4.6 mph - N/A   Clear
7:35 AM 69.8 °F - 63.3 °F 80% 29.98 in 10.0 mi ESE 4.6 mph - N/A   Clear
7:55 AM 71.8 °F - 63.5 °F 75% 30.00 in 10.0 mi East 3.5 mph - N/A   Clear
8:15 AM 74.3 °F - 64.8 °F 72% 30.00 in 10.0 mi ESE 4.6 mph - N/A   Clear
8:35 AM 75.9 °F - 64.6 °F 68% 30.00 in 10.0 mi ESE 4.6 mph - N/A   Clear
8:55 AM 77.2 °F - 65.3 °F 67% 30.01 in 10.0 mi ESE 5.8 mph - N/A   Clear
9:15 AM 78.8 °F - 65.3 °F 63% 30.01 in 10.0 mi Calm Calm - N/A   Clear
9:35 AM 80.4 °F 82.4 °F 65.7 °F 61% 30.00 in 10.0 mi South 3.5 mph - N/A   Clear
9:55 AM 81.9 °F 83.7 °F 65.5 °F 57% 30.00 in 10.0 mi South 8.1 mph - N/A   Clear
10:15 AM 82.4 °F 83.9 °F 64.4 °F 54% 30.00 in 10.0 mi South 3.5 mph - N/A   Clear
10:35 AM 83.7 °F 85.5 °F 65.7 °F 54% 30.00 in 10.0 mi South 5.8 mph - N/A   Clear
10:55 AM 83.5 °F 85.5 °F 65.7 °F 55% 30.00 in 10.0 mi WSW 4.6 mph - N/A   Clear
11:15 AM 84.6 °F 86.6 °F 65.7 °F 53% 29.99 in 10.0 mi SSW 3.5 mph - N/A   Clear
11:35 AM 86.2 °F 87.6 °F 64.4 °F 48% 29.99 in 10.0 mi SSW 5.8 mph - N/A   Clear
12:15 PM 88.2 °F 89.9 °F 64.8 °F 46% 29.99 in 10.0 mi SSW 3.5 mph 9.2 mph N/A   Clear
1:15 PM 89.8 °F 91.8 °F 64.9 °F 44% 29.97 in 10.0 mi SW 4.6 mph - N/A   Clear
1:35 PM 90.7 °F 92.4 °F 64.8 °F 42% 29.96 in 10.0 mi ESE 5.8 mph - N/A   Scattered Clouds
1:55 PM 91.8 °F 93.0 °F 63.5 °F 39% 29.96 in 10.0 mi South 8.1 mph - N/A   Clear
2:15 PM 92.3 °F 93.8 °F 63.7 °F 39% 29.95 in 10.0 mi SW 5.8 mph - N/A   Clear
2:55 PM 92.5 °F 93.3 °F 62.4 °F 37% 29.95 in 10.0 mi ESE 4.6 mph - N/A   Scattered Clouds
3:15 PM 92.7 °F 92.9 °F 61.5 °F 35% 29.94 in 10.0 mi ENE 3.5 mph - N/A   Scattered Clouds
3:35 PM 93.4 °F 94.7 °F 63.3 °F 37% 29.93 in 10.0 mi ESE 3.5 mph - N/A   Clear
3:55 PM 90.7 °F 91.3 °F 62.6 °F 39% 29.92 in 10.0 mi East 4.6 mph - N/A   Scattered Clouds
4:15 PM 93.6 °F 94.2 °F 62.1 °F 35% 29.91 in 10.0 mi NNE 4.6 mph - N/A   Scattered Clouds
4:35 PM 93.9 °F 94.4 °F 61.3 °F 34% 29.89 in 10.0 mi NE 9.2 mph - N/A   Clear
4:55 PM 93.9 °F 94.8 °F 62.8 °F 35% 29.89 in 10.0 mi East 10.4 mph - N/A   Scattered Clouds
5:15 PM 91.6 °F 91.6 °F 61.0 °F 36% 29.88 in 10.0 mi ESE 5.8 mph - N/A   Scattered Clouds
5:35 PM 93.2 °F 94.5 °F 63.1 °F 37% 29.87 in 10.0 mi East 6.9 mph - N/A   Clear
5:55 PM 92.7 °F 93.2 °F 62.4 °F 36% 29.87 in 10.0 mi ENE 9.2 mph 16.1 mph N/A   Clear
6:35 PM 91.9 °F 92.2 °F 61.7 °F 36% 29.87 in 10.0 mi East 8.1 mph - N/A   Clear
6:55 PM 91.4 °F 91.7 °F 61.5 °F 37% 29.87 in 10.0 mi East 9.2 mph - N/A   Clear
7:15 PM 90.7 °F 90.4 °F 60.6 °F 36% 29.87 in 10.0 mi East 9.2 mph 16.1 mph N/A   Clear
7:35 PM 90.0 °F 89.7 °F 60.3 °F 37% 29.87 in 10.0 mi East 9.2 mph 17.3 mph N/A   Clear
7:55 PM 88.9 °F 88.5 °F 60.4 °F 38% 29.88 in 10.0 mi East 11.5 mph 17.3 mph N/A   Clear
8:15 PM 87.4 °F 87.7 °F 61.7 °F 42% 29.88 in 10.0 mi East 10.4 mph - N/A   Clear
8:35 PM 86.0 °F 86.6 °F 62.2 °F 45% 29.88 in 10.0 mi East 8.1 mph - N/A   Clear
8:55 PM 84.6 °F 85.4 °F 62.6 °F 48% 29.88 in 10.0 mi East 6.9 mph - N/A   Clear
9:15 PM 83.5 °F 84.3 °F 62.6 °F 49% 29.89 in 10.0 mi East 4.6 mph - N/A   Clear
9:35 PM 82.4 °F 83.2 °F 62.2 °F 50% 29.90 in 10.0 mi East 5.8 mph - N/A   Clear
9:55 PM 81.7 °F 82.6 °F 61.7 °F 51% 29.90 in 10.0 mi East 6.9 mph - N/A   Clear
10:15 PM 81.7 °F 82.4 °F 61.2 °F 50% 29.91 in 10.0 mi East 6.9 mph - N/A   Clear
10:35 PM 81.5 °F 82.2 °F 61.2 °F 50% 29.91 in 10.0 mi East 6.9 mph - N/A   Clear
10:55 PM 81.5 °F 82.2 °F 61.0 °F 50% 29.92 in 10.0 mi East 5.8 mph - N/A   Clear
11:15 PM 79.7 °F - 61.5 °F 54% 29.92 in 10.0 mi ESE 4.6 mph - N/A   Clear
11:35 PM 79.2 °F - 61.3 °F 54% 29.93 in 10.0 mi ESE 5.8 mph - N/A   Clear
11:55 PM 78.8 °F - 61.3 °F 55% 29.94 in 10.0 mi ESE 4.6 mph - N/A   Clear